Weather Roundup
Issued by NWS Corpus Christi, TX

Home | Current Version | Previous Version | Text Only | Print | Product List | Glossary On
Versions: 1 2 3 4 5 6 7 8 9 10 11 12 13 14 15 16 17 18 19 20 21 22 23 24 25 26 27 28 29 30 31 32 33 34 35 36 37 38 39 40 41 42 43 44 45 46 47 48 49 50
000
ASUS44 KCRP 102210
HRRCRP

SOUTH TEXAS REGIONAL WEATHER ROUNDUP
NATIONAL WEATHER SERVICE CORPUS CHRISTI TX
400 PM CST SAT DEC 10 2016


TXZ229>244-102300-
...CORPUS CHRISTI AREA OBSERVATIONS...

CITY           SKY/WX    TMP DP  RH WIND       PRES   REMARKS
CORPUS CHRISTI DRIZZLE   57  54  89 N8        30.26F
NAS CORPUS CHR CLOUDY    57  57 100 N5        30.25F
ROCKPORT       CLOUDY    61  54  77 NE8       30.26F
KINGSVILLE NAS CLOUDY    56  50  80 N8        30.27F
ALICE          CLOUDY    53  49  86 N6        30.27F
ORANGE GROVE   CLOUDY    54  50  86 NE7       30.28F
FALFURRIAS     CLOUDY    55  45  68 N8        30.27S
$$

...VICTORIA AREA OBSERVATIONS...

CITY           SKY/WX    TMP DP  RH WIND       PRES   REMARKS
VICTORIA       CLOUDY    61  51  70 E13       30.29F
BEEVILLE       CLOUDY    58  53  81 E7        30.27F
PLEASANTON     CLOUDY    50  42  74 NE3       30.30F
SAN ANTONIO    DRIZZLE   47  42  83 E5        30.28F
$$

...LAREDO AREA OBSERVATIONS...

CITY           SKY/WX    TMP DP  RH WIND       PRES   REMARKS
LAREDO         LGT RAIN  48  47  96 NE6       30.29S
COTULLA        CLOUDY    48  44  86 NE5       30.29F FOG
DEL RIO        CLOUDY    50  40  68 SE12      30.22F
MCALLEN        CLOUDY    56  41  57 NW10      30.27S
HEBBRONVILLE   CLOUDY    47  46  95 N6        30.27F FOG
$$

...OTHER TEXAS OBSERVATIONS...

CITY           SKY/WX    TMP DP  RH WIND       PRES   REMARKS
BROWNSVILLE    CLOUDY    57  48  72 NW8       30.25S
HOUSTON        CLOUDY    54  31  41 SE14      30.34F
COL. STATION   CLOUDY    53  37  54 SE9       30.30F
AUSTIN         CLOUDY    53  42  66 S7        30.28F
WACO           CLOUDY    49  35  58 S13       30.28F
FORT WORTH     CLOUDY    49  32  52 S13       30.24F
WICHITA FALLS  SUNNY     53  33  46 S24       30.11F
LUBBOCK        MOSUNNY   61  38  42 S17       30.00F
EL PASO        MOSUNNY   57  36  45 SW8       30.11F
$$

...MARINE OBSERVATIONS...

STATION/POSITION TIME  SKY/WX   TEMP    WIND        PRES    VSBY  WAVE   SWELL
                                AIR SEA DIR/SP/G                  HT/PER HT/PER
                 (UTC)          (F)     (DEG/KT/KT) (MB)    (MI)  (FT/S) (FT/S)
PORT ARANSAS     2200            64 60   90/ 11/ 12 1024.1F
BUOY 90 E PORT A 2150            68 76   80/ 17/ 21 1024.8F         5/ 7   2/ 8
BUOY 45 SE BAFFI 2050            70 74  100/ 17/ 23 1022.9          7/ 8
BUOY 200 E PT IS 2150            71 76   80/ 17/ 21 1024.1S         6/ 8
BUOY 15 E GALVES 2150            57 65   90/ 14/ 17 1028.1F         4/ 5   2/11
$$




USA.gov is the U.S. government's official web portal to all federal, state and local government web resources and services.